UAL734 KRIC-KORF

Flight info

Callsign UAL734
Flight time 0h 21m
Altitude 9000
Route HPW LFI ORF
Aircraft B722/M-SDFHIRWY/C

Departure

Time 2026-05-09 17:08
Airport Richmond International Airport (KRIC)

Arrival

Time 2026-05-09 17:29
Airport Norfolk International Airport (KORF)
Time Latitude Longitude Altitude Speed Heading
2026-05-09 16:28 37.50693 -77.33067 176 ft 0 kts 258°
2026-05-09 16:58 37.50700 -77.33043 176 ft 4 kts 234°
2026-05-09 16:58 37.50717 -77.33031 176 ft 4 kts 176°
2026-05-09 16:58 37.50734 -77.33039 176 ft 0 kts 148°
2026-05-09 17:04 37.50899 -77.32892 176 ft 18 kts 13°
2026-05-09 17:05 37.51029 -77.32854 176 ft 20 kts 14°
2026-05-09 17:05 37.51176 -77.32809 176 ft 23 kts 13°
2026-05-09 17:05 37.51339 -77.32761 176 ft 25 kts 13°
2026-05-09 17:05 37.51486 -77.32717 176 ft 20 kts 14°
2026-05-09 17:06 37.51599 -77.32683 176 ft 12 kts 17°
2026-05-09 17:06 37.51638 -77.32595 176 ft 14 kts 90°
2026-05-09 17:06 37.51636 -77.32474 177 ft 13 kts 95°
2026-05-09 17:06 37.51629 -77.32360 177 ft 9 kts 93°
2026-05-09 17:07 37.51600 -77.32310 178 ft 4 kts 147°
2026-05-09 17:07 37.51344 -77.32105 179 ft 75 kts 147°
2026-05-09 17:07 37.50733 -77.31614 177 ft 131 kts 148°
2026-05-09 17:08 37.49875 -77.30911 377 ft 154 kts 150°
2026-05-09 17:08 37.48337 -77.28721 1313 ft 188 kts 132°
2026-05-09 17:08 37.47496 -77.27334 1702 ft 211 kts 133°
2026-05-09 17:09 37.46517 -77.25771 2161 ft 243 kts 134°
2026-05-09 17:09 37.45370 -77.24033 2909 ft 266 kts 135°
2026-05-09 17:09 37.44042 -77.22459 4253 ft 264 kts 145°
2026-05-09 17:09 37.42562 -77.21062 5342 ft 274 kts 148°
2026-05-09 17:10 37.41022 -77.19643 6506 ft 275 kts 147°
2026-05-09 17:10 37.39467 -77.18169 7287 ft 285 kts 147°
2026-05-09 17:10 37.37880 -77.16623 8111 ft 291 kts 147°
2026-05-09 17:10 37.36295 -77.15042 8938 ft 290 kts 147°
2026-05-09 17:11 37.34707 -77.13444 8980 ft 290 kts 146°
2026-05-09 17:11 37.33140 -77.11867 8974 ft 290 kts 144°
2026-05-09 17:11 37.31828 -77.09902 8973 ft 300 kts 123°
2026-05-09 17:11 37.31045 -77.07450 8991 ft 304 kts 114°
2026-05-09 17:12 37.30243 -77.04997 9001 ft 303 kts 119°
2026-05-09 17:12 37.29321 -77.02632 9000 ft 301 kts 122°
2026-05-09 17:12 37.28358 -77.00293 9001 ft 302 kts 122°
2026-05-09 17:12 37.27386 -76.97960 9005 ft 301 kts 122°
2026-05-09 17:13 37.26467 -76.95595 9008 ft 303 kts 119°
2026-05-09 17:13 37.25631 -76.93206 9009 ft 303 kts 117°
2026-05-09 17:13 37.24792 -76.90745 9008 ft 303 kts 117°
2026-05-09 17:13 37.23973 -76.88332 8789 ft 305 kts 117°
2026-05-09 17:14 37.23136 -76.85859 8466 ft 303 kts 117°
2026-05-09 17:14 37.22329 -76.83474 8156 ft 299 kts 117°
2026-05-09 17:14 37.21523 -76.81091 7862 ft 296 kts 117°
2026-05-09 17:14 37.20723 -76.78725 7555 ft 291 kts 117°
2026-05-09 17:15 37.19940 -76.76407 7260 ft 285 kts 117°
2026-05-09 17:15 37.19169 -76.74129 6947 ft 280 kts 117°
2026-05-09 17:15 37.18434 -76.71897 6652 ft 276 kts 116°
2026-05-09 17:15 37.17721 -76.69681 6353 ft 271 kts 116°
2026-05-09 17:16 37.16952 -76.67552 6042 ft 266 kts 117°
2026-05-09 17:17 37.13399 -76.52641 3996 ft 255 kts 90°
2026-05-09 17:18 37.13486 -76.50439 3733 ft 252 kts 90°
2026-05-09 17:18 37.13582 -76.48251 3491 ft 251 kts 89°
2026-05-09 17:18 37.13716 -76.46052 3235 ft 253 kts 84°
2026-05-09 17:18 37.14075 -76.43893 3033 ft 251 kts 79°
2026-05-09 17:19 37.14483 -76.41768 2770 ft 249 kts 79°
2026-05-09 17:19 37.14883 -76.39673 2505 ft 246 kts 79°
2026-05-09 17:19 37.15265 -76.37621 2256 ft 244 kts 79°
2026-05-09 17:19 37.15643 -76.35553 2003 ft 242 kts 79°
2026-05-09 17:20 37.16008 -76.33562 1980 ft 225 kts 79°
2026-05-09 17:20 37.16356 -76.31708 1962 ft 211 kts 79°
2026-05-09 17:20 37.16687 -76.29964 1966 ft 204 kts 79°
2026-05-09 17:20 37.17019 -76.28234 1978 ft 204 kts 79°
2026-05-09 17:21 37.17296 -76.26482 1949 ft 204 kts 95°
2026-05-09 17:21 37.16819 -76.24883 2001 ft 197 kts 127°
2026-05-09 17:21 37.16053 -76.23490 2011 ft 196 kts 129°
2026-05-09 17:21 37.15250 -76.22080 1993 ft 196 kts 129°
2026-05-09 17:22 37.14457 -76.20713 1996 ft 196 kts 130°
2026-05-09 17:22 37.13645 -76.19329 1997 ft 197 kts 130°
2026-05-09 17:22 37.12827 -76.17942 1995 ft 198 kts 130°
2026-05-09 17:22 37.12007 -76.16562 1999 ft 197 kts 131°
2026-05-09 17:23 37.11183 -76.15188 2000 ft 197 kts 131°
2026-05-09 17:23 37.10364 -76.13819 2016 ft 192 kts 131°
2026-05-09 17:23 37.09570 -76.12495 1990 ft 190 kts 132°
2026-05-09 17:23 37.08775 -76.11174 1990 ft 190 kts 131°
2026-05-09 17:25 37.03366 -76.09432 1560 ft 149 kts 187°
2026-05-09 17:25 37.02346 -76.09558 1576 ft 146 kts 186°
2026-05-09 17:25 37.01329 -76.09674 1578 ft 147 kts 186°
2026-05-09 17:25 37.00315 -76.09796 1578 ft 146 kts 187°
2026-05-09 17:26 36.99362 -76.10195 1546 ft 148 kts 219°
2026-05-09 17:26 36.98620 -76.11090 1708 ft 148 kts 219°
2026-05-09 17:26 36.97819 -76.11877 1625 ft 146 kts 214°
2026-05-09 17:26 36.97004 -76.12660 1593 ft 148 kts 216°
2026-05-09 17:27 36.96186 -76.13466 1400 ft 150 kts 216°
2026-05-09 17:27 36.95360 -76.14258 1199 ft 150 kts 216°
2026-05-09 17:27 36.94547 -76.15068 1000 ft 145 kts 218°
2026-05-09 17:27 36.93789 -76.15807 831 ft 132 kts 218°
2026-05-09 17:28 36.93064 -76.16487 655 ft 126 kts 217°
2026-05-09 17:28 36.92395 -76.17137 513 ft 121 kts 219°
2026-05-09 17:28 36.91745 -76.17768 332 ft 117 kts 218°
2026-05-09 17:28 36.91087 -76.18415 238 ft 118 kts 218°
2026-05-09 17:29 36.90460 -76.19023 51 ft 110 kts 217°
2026-05-09 17:29 36.89933 -76.19531 38 ft 76 kts 218°
2026-05-09 17:29 36.89636 -76.19818 41 ft 38 kts 218°
2026-05-09 17:29 36.89484 -76.19964 41 ft 22 kts 218°
2026-05-09 17:30 36.89425 -76.20062 44 ft 10 kts 277°
2026-05-09 17:30 36.89445 -76.20151 42 ft 11 kts 303°
2026-05-09 17:30 36.89515 -76.20151 41 ft 13 kts 38°
2026-05-09 17:30 36.89592 -76.20076 41 ft 16 kts 36°
2026-05-09 17:31 36.89689 -76.19983 40 ft 19 kts 37°
2026-05-09 17:31 36.89806 -76.19870 38 ft 20 kts 38°
2026-05-09 17:32 36.90006 -76.20002 34 ft 13 kts 279°
2026-05-09 17:32 36.90006 -76.20104 35 ft 11 kts 271°
2026-05-09 17:32 36.90014 -76.20175 36 ft 5 kts 277°
2026-05-09 17:33 36.89998 -76.20204 37 ft 4 kts 204°
2026-05-09 17:33 36.89974 -76.20214 37 ft 3 kts 195°
2026-05-09 17:33 36.89961 -76.20219 38 ft 1 kts 194°
2026-05-09 17:33 36.89957 -76.20220 38 ft 0 kts 194°
2026-05-09 17:34 36.89956 -76.20220 38 ft 0 kts 194°